Weather History for Abbeville, LA

Change the Weather History Date:

Friday, October 26, 2012

  Actual Average (KARA) Record (KARA)
Temperature  
Mean Temperature 69 °F 67 °F  
Max Temperature 84 °F 79 °F 88 °F (2010)
Min Temperature 54 °F 56 °F 39 °F (1952)
Degree Days  
Heating Degree Days 0 2  
Month to date heating degree days 20  
Since 1 July heating degree days 21  
Cooling Degree Days 4 4  
Month to date cooling degree days 170  
Year to date cooling degree days 2726  
Growing Degree Days 19 (Base 50)    
Moisture  
Dew Point 65 °F    
Average Humidity 88    
Maximum Humidity 100    
Minimum Humidity 55    
Precipitation  
Precipitation 0.00 in 0.09 in 4.45 in (1996)
Month to date precipitation 4.63  
Year to date precipitation 50.11  
Sea Level Pressure  
Sea Level Pressure 29.98 in    
Wind  
Wind Speed 4 mph ()    
Max Wind Speed 18 mph    
Max Gust Speed 26 mph    
Visibility 6.5 miles    
Events Fog    
T = Trace of Precipitation, MM = Missing Value Source: Averaged Metar Reports

Daily Weather History Graph

Daily Weather History Graph

Search for Another Location

Airport:

Trip Planner

Search our weather history database for the weather conditions in past years. The results will help you decide how hot, cold, wet, or windy it might be!

Date:

Astronomy

Oct. 26, 2012 Rise Set
Actual Time 7:18 AM CDT 6:25 PM CDT
Civil Twilight 6:53 AM CDT 6:50 PM CDT
Nautical Twilight 6:25 AM CDT 7:18 PM CDT
Astronomical Twilight 5:57 AM CDT 7:46 PM CDT
Moon 4:33 PM CDT (10/26) 4:25 AM CDT (10/26)
Length of Visible Light 11h 56m
Length of Day
11h 07m
Waxing Gibbous, 91% of the Moon is Illuminated
Oct 26
Waxing Gibbous
Oct 29
Full
Nov 6
Last Quarter
Nov 13
New
Nov 20
First Quarter

Hourly Weather History & Observations

Time (CDT) Temp. Heat Index Dew Point Humidity Pressure Visibility Wind Dir Wind Speed Gust Speed Precip Events Conditions
12:15 AM 67.3 °F - 67.3 °F 100% 29.95 in 7.0 mi Calm Calm - N/A   Clear
12:55 AM 67.1 °F - 67.1 °F 100% 29.95 in 5.0 mi Calm Calm - N/A   Clear
1:15 AM 68.2 °F - 68.2 °F 100% 29.94 in 4.0 mi ESE 3.5 mph - N/A   Scattered Clouds
1:35 AM 70.5 °F - 70.5 °F 100% 29.94 in 10.0 mi Calm Calm - N/A   Scattered Clouds
1:55 AM 67.6 °F - 67.6 °F 100% 29.94 in 5.0 mi Calm Calm - N/A   Clear
2:15 AM 64.9 °F - 64.9 °F 100% 29.94 in 0.2 mi Calm Calm - N/A Fog Fog
2:35 AM 66.2 °F - 66.2 °F 100% 29.94 in 0.2 mi Calm Calm - N/A Fog Fog
2:55 AM 63.0 °F - 63.0 °F 100% 29.94 in 0.5 mi WNW 3.5 mph - N/A Fog Fog
3:15 AM 64.2 °F - 64.2 °F 100% 29.94 in 7.0 mi Calm Calm - N/A   Mostly Cloudy
3:35 AM 64.0 °F - 64.0 °F 100% 29.93 in 0.5 mi Calm Calm - N/A Fog Fog
3:55 AM 64.4 °F - 64.4 °F 100% 29.93 in 0.2 mi Calm Calm - N/A Fog Fog
4:15 AM 64.6 °F - 64.6 °F 100% 29.94 in 0.2 mi NE 3.5 mph - N/A Fog Fog
4:35 AM 65.5 °F - 65.5 °F 100% 29.94 in 0.2 mi NE 3.5 mph - N/A Fog Fog
4:55 AM 66.2 °F - 66.2 °F 100% 29.94 in 0.5 mi Calm Calm - N/A Fog Fog
5:15 AM 66.7 °F - 66.7 °F 100% 29.95 in 3.0 mi Calm Calm - N/A   Mostly Cloudy
5:35 AM 66.9 °F - 66.9 °F 100% 29.95 in 2.0 mi Calm Calm - N/A   Scattered Clouds
5:55 AM 65.3 °F - 65.3 °F 100% 29.95 in 0.2 mi Calm Calm - N/A Fog Fog
6:15 AM 64.6 °F - 64.6 °F 100% 29.95 in 0.2 mi Calm Calm - N/A Fog Fog
6:35 AM 64.9 °F - 64.9 °F 100% 29.95 in 0.2 mi Calm Calm - N/A Fog Fog
6:55 AM 63.9 °F - 63.9 °F 100% 29.95 in 0.2 mi Calm Calm - N/A Fog Fog
7:15 AM 63.5 °F - 63.5 °F 100% 29.96 in 0.5 mi Calm Calm - N/A Fog Fog
7:35 AM 63.5 °F - 63.5 °F 100% 29.96 in 0.2 mi Calm Calm - N/A Fog Fog
7:55 AM 65.1 °F - 65.1 °F 100% 29.98 in 0.2 mi Calm Calm - N/A Fog Fog
8:15 AM 68.0 °F - 68.0 °F 100% 29.98 in 0.5 mi North 3.5 mph - N/A Fog Fog
8:55 AM 70.0 °F - 70.0 °F 100% 30.00 in 0.2 mi Calm Calm - N/A Fog Fog
9:55 AM 72.5 °F - 72.5 °F 100% 30.00 in 0.8 mi North 5.8 mph - N/A   Overcast
10:15 AM 72.9 °F - 72.9 °F 100% 30.00 in 2.5 mi North 4.6 mph - N/A   Overcast
10:35 AM 73.4 °F - 73.4 °F 100% 29.99 in 7.0 mi North 3.5 mph - N/A   Overcast
11:15 AM 74.5 °F - 74.5 °F 100% 30.00 in 10.0 mi NW 3.5 mph - N/A   Overcast
11:35 AM 75.4 °F - 75.4 °F 100% 30.00 in 10.0 mi NW 4.6 mph - N/A   Mostly Cloudy
11:55 AM 80.1 °F 84.5 °F 73.9 °F 81% 30.00 in 10.0 mi NW 8.1 mph - N/A   Mostly Cloudy
12:15 PM 81.0 °F 85.4 °F 72.5 °F 75% 30.00 in 10.0 mi WNW 4.6 mph - N/A   Mostly Cloudy
12:35 PM 82.4 °F 87.4 °F 72.0 °F 71% 29.99 in 10.0 mi NW 6.9 mph - N/A   Scattered Clouds
1:15 PM 82.9 °F 87.0 °F 70.0 °F 65% 29.98 in 10.0 mi NW 6.9 mph - N/A   Scattered Clouds
1:35 PM 83.5 °F 86.9 °F 68.9 °F 61% 29.98 in 10.0 mi NW 5.8 mph - N/A   Clear
1:55 PM 84.7 °F 87.4 °F 67.1 °F 55% 29.97 in 10.0 mi West 3.5 mph - N/A   Scattered Clouds
2:35 PM 83.5 °F 86.4 °F 68.0 °F 59% 29.96 in 10.0 mi NW 6.9 mph - N/A   Overcast
2:55 PM 82.8 °F 86.0 °F 68.7 °F 62% 29.95 in 10.0 mi NNW 6.9 mph - N/A   Overcast
3:15 PM 82.8 °F 86.2 °F 68.9 °F 63% 29.94 in 10.0 mi NNW 8.1 mph - N/A   Overcast
3:35 PM 78.3 °F - 70.2 °F 76% 29.95 in 10.0 mi North 13.8 mph - N/A   Mostly Cloudy
3:55 PM 79.7 °F - 69.6 °F 71% 29.95 in 10.0 mi NNW 13.8 mph 19.6 mph N/A   Mostly Cloudy
4:15 PM 78.4 °F - 67.8 °F 70% 29.95 in 10.0 mi NNW 16.1 mph 20.7 mph N/A   Overcast
4:35 PM 77.0 °F - 66.2 °F 69% 29.95 in 10.0 mi North 15.0 mph - N/A   Overcast
4:55 PM 77.0 °F - 66.4 °F 70% 29.95 in 10.0 mi North 13.8 mph 17.3 mph N/A   Overcast
5:15 PM 76.3 °F - 66.0 °F 70% 29.96 in 10.0 mi NNW 15.0 mph 21.9 mph N/A   Overcast
5:35 PM 74.5 °F - 65.3 °F 73% 29.97 in 10.0 mi NNW 17.3 mph - N/A   Scattered Clouds
5:55 PM 73.4 °F - 64.4 °F 73% 29.97 in 10.0 mi NNW 11.5 mph - N/A   Mostly Cloudy
6:15 PM 71.6 °F - 63.3 °F 75% 29.98 in 10.0 mi NNW 13.8 mph 20.7 mph N/A   Overcast
6:35 PM 68.9 °F - 60.8 °F 75% 29.99 in 10.0 mi NNW 15.0 mph 24.2 mph N/A   Overcast
6:55 PM 65.8 °F - 59.0 °F 79% 30.00 in 10.0 mi NNW 17.3 mph 20.7 mph N/A   Scattered Clouds
7:15 PM 63.3 °F - 57.7 °F 82% 30.02 in 10.0 mi NNW 15.0 mph 25.3 mph N/A   Clear
7:35 PM 61.7 °F - 57.2 °F 85% 30.03 in 10.0 mi NNW 17.3 mph 21.9 mph N/A   Scattered Clouds
7:55 PM 61.7 °F - 57.2 °F 85% 30.04 in 10.0 mi NNW 13.8 mph - N/A   Mostly Cloudy
8:15 PM 61.2 °F - 56.3 °F 84% 30.05 in 10.0 mi NNW 13.8 mph 19.6 mph N/A   Overcast
8:35 PM 60.3 °F - 55.9 °F 86% 30.06 in 10.0 mi NNW 16.1 mph - N/A   Overcast
8:55 PM 60.1 °F - 55.6 °F 85% 30.07 in 10.0 mi NNW 12.7 mph 23.0 mph N/A   Overcast
9:15 PM 59.4 °F - 54.5 °F 84% 30.08 in 10.0 mi North 15.0 mph 19.6 mph N/A   Overcast
9:35 PM 58.1 °F - 54.5 °F 88% 30.08 in 10.0 mi NNW 18.4 mph 24.2 mph N/A   Overcast
9:55 PM 56.8 °F - 53.2 °F 88% 30.08 in 10.0 mi North 17.3 mph 25.3 mph N/A   Overcast
10:15 PM 56.5 °F - 52.7 °F 87% 30.08 in 10.0 mi North 17.3 mph 26.5 mph N/A   Overcast
10:35 PM 55.6 °F - 53.4 °F 92% 30.08 in 10.0 mi NNW 15.0 mph 21.9 mph N/A   Overcast
11:15 PM 54.9 °F - 51.8 °F 89% 30.08 in 10.0 mi North 16.1 mph 24.2 mph N/A   Overcast
11:55 PM 54.9 °F - 50.4 °F 85% 30.09 in 10.0 mi North 15.0 mph 19.6 mph N/A   Overcast